GFSFLT1_con_3kmhel_030.txt.gz
Helicity
122 91 14 39 61 123 159 152 184 183 180 180 173 155 104 42 40 119 155 154 150 173 142 139 126 104 99 92 98 105 96 88
180 144 87 71 84 184 173 188 172 244 233 235 210 158 130 124 123 131 165 166 159 146 133 126 115 72 91 96 100 102 89 99
169 186 205 219 206 188 177 167 194 233 235 253 205 170 129 127 146 163 179 176 144 146 135 93 78 114 124 136 151 135 113 109
300 285 326 295 306 269 209 202 197 214 218 278 283 265 264 235 218 203 154 177 190 190 155 132 194 194 168 159 122 121 120 117
392 397 468 447 398 362 253 241 191 185 237 283 334 319 286 208 242 211 225 222 202 197 236 227 265 229 215 174 163 145 155 133
442 474 500 437 449 399 320 246 182 199 219 206 277 279 241 263 299 331 330 291 285 283 236 313 273 218 202 209 184 186 177 187
360 452 449 366 299 319 309 214 168 129 163 189 246 300 366 436 433 429 348 333 316 280 264 270 242 208 208 189 183 168 164 172
395 469 426 376 343 313 183 256 269 169 212 259 340 447 517 561 494 413 375 372 338 327 265 221 188 201 199 159 134 143 161 171
357 402 361 337 321 260 298 338 364 252 335 384 443 529 513 476 426 390 413 375 311 216 217 169 192 147 122 132 141 167 168 161
331 397 377 386 340 347 428 402 432 385 433 465 478 455 429 422 414 373 302 272 235 256 355 181 174 121 125 139 150 161 151 143
281 348 393 405 318 313 374 416 424 393 404 388 389 378 364 360 343 304 265 254 316 241 158 179 189 121 116 132 132 121 118 112
291 330 349 366 381 391 378 431 452 446 430 442 433 371 321 297 290 289 314 273 289 286 140 235 148 112 110 106 90 100 112 119
333 351 371 358 390 450 434 426 452 455 464 460 417 402 342 314 292 282 298 278 200 220 161 167 138 125 96 135 112 128 132 140
376 426 440 422 399 433 474 530 547 530 508 477 436 357 329 273 270 273 271 273 266 242 201 187 152 129 133 79 90 137 181 201
384 422 430 458 465 491 562 609 573 506 525 501 419 342 282 256 298 337 357 389 425 376 190 156 150 161 130 140 175 200 192 204
267 308 366 458 505 550 611 625 528 538 527 459 369 311 296 341 415 449 484 584 550 394 210 119 182 176 186 204 204 204 204 200
113 190 328 423 468 505 572 553 503 523 457 418 370 406 437 540 628 735 762 782 726 253 162 149 141 176 180 195 220 200 190 186
138 77 112 217 308 385 368 437 489 459 488 513 553 666 820 824 803 917 1062 528 178 149 141 99 109 147 188 203 210 208 197 183
225 177 73 83 166 254 391 504 561 605 686 718 823 911 1068 1097 1078 886 343 94 128 157 91 77 130 149 174 193 217 219 201 182

GFSFLT1_con_3kmhel_033.txt.gz
Helicity
29 35 5 3 -1 25 41 36 68 102 120 136 128 131 133 128 125 142 138 167 205 209 170 167 173 135 101 92 77 35 34 26
33 31 10 2 3 61 92 129 133 204 216 205 175 187 184 187 158 120 132 166 172 176 163 152 112 111 105 56 9 22 83 21
43 45 39 35 65 92 133 170 220 230 247 225 217 215 192 185 142 157 172 188 169 157 138 122 121 122 50 45 57 32 32 50
49 99 146 100 105 120 156 203 233 224 214 256 278 315 288 249 203 206 159 158 157 161 145 128 138 110 84 105 101 95 95 106
132 115 188 219 161 126 137 185 207 217 222 288 325 335 315 222 210 201 196 199 203 172 175 196 191 174 118 122 122 122 145 133
262 205 171 240 228 224 207 196 179 170 271 289 315 317 277 258 277 283 264 268 253 217 194 178 175 111 180 276 140 162 155 173
254 265 238 305 304 291 291 272 242 218 249 238 309 234 265 300 328 310 295 303 280 297 286 271 221 157 170 248 200 224 149 177
424 387 371 381 326 288 290 304 284 255 234 222 178 205 254 288 328 371 401 417 381 350 357 291 153 181 247 216 199 210 171 193
363 417 430 452 342 256 291 215 204 255 277 204 193 242 309 364 459 468 495 466 411 418 301 99 125 359 236 228 216 190 154 142
259 352 407 388 375 304 242 235 218 191 219 281 296 329 366 425 460 489 489 510 423 243 230 334 241 282 181 163 161 169 183 198
146 245 291 308 280 330 293 277 244 227 296 336 343 392 455 532 570 599 571 487 387 233 345 322 255 213 192 168 146 174 185 181
92 139 205 232 282 279 255 296 308 328 367 413 492 517 519 509 505 482 500 431 352 333 264 271 240 217 214 134 120 145 168 147
105 177 243 266 274 263 272 286 333 402 470 493 418 431 427 407 426 409 348 314 282 263 278 286 264 220 168 114 142 142 141 146
124 193 255 281 297 313 320 364 413 479 482 392 388 393 360 362 365 314 315 318 310 304 319 355 348 224 130 138 147 130 129 141
194 219 259 247 309 348 413 456 476 464 391 392 387 321 348 340 332 314 427 386 389 366 415 461 351 128 149 154 148 159 153 153
176 208 197 224 334 399 441 486 468 386 424 416 326 343 380 364 415 473 461 429 554 643 632 415 138 172 164 136 182 193 184 205
106 144 195 236 300 365 396 374 346 452 416 373 388 415 395 449 531 641 774 870 848 761 362 161 180 168 103 147 210 222 218 217
183 134 95 119 195 288 319 373 417 470 465 493 517 569 681 766 769 859 898 918 634 380 188 186 174 113 104 139 201 239 231 228
152 149 138 126 121 188 272 301 375 492 595 669 736 815 823 899 979 1102 1021 554 242 196 216 158 132 105 105 127 188 243 241 235

GFSFLT1_con_3kmhel_036.txt.gz
Helicity
37 11 -9 -15 10 12 1 -0 -5 -8 3 18 24 57 69 79 85 99 128 183 214 224 208 179 154 155 140 131 111 103 48 23
23 18 16 14 -12 -19 -6 22 34 76 70 83 90 120 125 112 90 110 151 192 201 197 190 180 158 159 150 119 99 69 6 8
-27 -11 23 50 54 24 -2 24 79 104 143 163 146 166 129 135 155 169 168 172 172 184 188 183 183 180 175 151 75 -9 8 7
6 29 69 70 93 98 76 66 98 144 180 256 241 276 225 239 252 221 181 170 211 213 219 219 216 174 152 124 70 10 -11 50
53 68 34 66 39 51 118 129 120 161 213 262 312 306 315 276 279 225 230 222 255 236 232 226 215 182 146 93 18 -19 -68 165
69 110 149 159 122 121 139 190 145 182 226 261 328 308 336 330 308 309 288 283 278 252 245 239 220 161 107 111 112 86 162 202
104 116 166 146 175 216 213 204 147 198 225 296 363 393 361 344 359 362 309 320 296 279 283 250 195 175 118 105 166 102 164 197
194 215 261 263 235 252 249 227 134 153 237 277 349 386 316 286 333 371 380 371 357 338 284 295 297 266 160 52 153 185 172 200
262 269 353 371 322 316 324 280 190 160 201 254 292 281 276 275 353 419 425 417 404 339 490 437 260 187 139 113 181 209 208 186
169 264 301 384 342 343 339 309 184 210 239 265 312 269 268 284 370 422 440 447 466 509 408 297 215 126 182 215 230 221 144 168
6 153 184 194 286 294 310 252 247 286 232 250 261 225 273 362 418 426 417 457 537 440 319 249 221 150 216 248 274 188 126 144
44 63 124 134 123 192 208 207 278 250 211 208 235 249 303 363 353 369 422 470 477 325 276 218 180 227 306 283 208 129 118 139
34 13 41 109 82 101 122 163 206 204 242 278 287 304 318 281 277 346 448 444 362 246 298 326 306 352 291 278 122 120 157 165
54 63 70 86 130 163 129 176 225 274 320 313 294 301 298 260 317 362 397 468 374 293 400 402 274 362 466 174 123 164 178 153
69 83 104 150 132 173 184 211 274 320 313 332 304 269 273 319 364 389 405 308 354 393 394 368 472 645 170 126 186 194 166 162
48 63 99 127 149 175 208 235 291 308 286 280 270 294 333 355 387 419 492 465 579 656 515 812 959 168 140 164 184 187 189 182
129 113 103 115 137 171 203 249 290 279 290 299 308 342 367 374 416 488 577 725 840 660 828 751 207 167 166 124 151 184 206 225
229 224 196 160 106 115 193 234 270 299 334 365 392 418 455 481 563 674 748 841 806 796 679 244 194 181 139 88 106 190 221 227
206 168 158 187 196 219 228 243 290 353 380 396 403 445 545 601 731 857 793 874 652 259 236 212 193 123 107 88 99 167 208 225

GFSFLT1_con_3kmhel_039.txt.gz
Helicity
34 51 33 16 22 31 55 35 31 19 -31 -29 -12 -4 1 25 39 48 69 84 114 154 168 173 163 164 162 160 156 141 127 95
32 31 10 16 26 25 24 21 -7 -17 -15 -19 -13 5 26 33 55 64 74 97 149 177 196 199 186 187 195 174 158 155 122 62
-10 11 21 39 35 39 29 28 20 20 13 28 32 56 59 73 82 97 105 136 160 189 221 213 215 219 195 177 155 126 92 31
-27 -5 15 19 40 44 32 24 31 39 46 81 111 116 102 121 125 148 154 158 179 199 227 236 234 217 217 192 151 106 55 13
3 20 21 30 20 12 30 46 61 65 77 85 131 142 172 175 174 184 203 201 218 218 249 251 253 251 231 188 121 59 -3 -52
11 8 14 31 57 71 63 58 56 82 103 105 147 175 205 250 252 266 264 278 256 255 263 263 272 251 219 173 130 58 -8 92
41 22 14 44 68 81 97 87 71 92 113 136 165 183 284 319 300 309 305 296 298 277 270 272 281 272 254 236 188 27 36 106
30 59 81 98 125 149 162 176 160 154 178 140 174 246 316 353 337 334 390 379 353 298 305 358 320 318 263 161 74 30 98 126
60 73 89 130 161 162 191 242 234 191 111 139 194 231 315 340 331 357 372 357 339 350 362 349 324 270 180 99 90 127 135 125
49 45 67 98 185 222 210 236 223 207 199 157 171 206 246 270 291 303 333 353 344 361 358 334 274 217 125 87 123 163 137 150
22 23 24 47 122 154 156 156 161 170 192 163 208 165 199 254 298 283 259 296 349 374 355 310 276 150 177 226 222 203 179 186
7 12 31 38 92 134 143 129 88 90 154 158 144 128 165 210 242 236 283 322 330 328 342 344 238 128 174 303 395 269 118 99
-3 -2 8 5 12 34 45 60 66 72 83 109 118 141 175 215 250 269 267 256 288 315 325 326 332 134 310 409 458 149 74 104
14 -10 -13 6 3 13 24 65 72 78 101 115 148 171 192 185 169 154 208 230 292 371 395 328 227 318 654 500 247 75 77 116
80 65 38 33 35 36 78 107 119 126 136 152 176 162 139 151 148 193 247 337 292 328 502 544 476 532 595 412 103 88 110 130
97 90 86 89 90 112 110 111 113 121 143 161 186 193 195 201 207 265 311 353 441 383 631 762 646 744 403 156 112 103 115 121
176 164 145 131 112 127 148 140 143 130 150 179 203 233 271 284 308 343 410 491 476 678 809 840 672 332 231 113 123 134 112 142
235 232 227 213 185 153 156 150 157 176 176 190 206 235 271 297 341 440 510 653 632 908 571 290 274 196 125 109 122 137 117 119
209 186 178 175 155 160 164 185 192 189 190 185 186 217 271 332 413 437 420 313 289 213 189 183 171 143 133 117 105 109 124 127